FW7989 Weather Reports


time (UTC)temp
F
wind
direction
speed
knots
gust
knots
rain 1hr
in
rain 24hr
in
rain mn
in
humidity
%
barometer
mb
20260507094604 60 186 3.5 9.6 0.00 0.00 0.00 67 1015.5
20260507094101 60 0 3.5 7.8 0.00 0.00 0.00 70 1015.6
20260507093558 60 109 2.6 12.2 0.00 0.00 0.00 66 1015.4
20260507093100 59 135 2.6 12.2 0.00 0.00 0.00 70 1015.6
20260507092559 59 178 2.6 9.6 0.00 0.00 0.00 70 1015.6
20260507092058 59 188 4.3 9.6 0.00 0.00 0.00 72 1015.6
20260507091605 59 134 4.3 7.8 0.00 0.00 0.00 70 1015.7
20260507091058 58 171 4.3 7.8 0.00 0.00 0.00 74 1015.7
20260507090559 57 101 4.3 8.7 0.00 0.00 0.00 72 1015.8
20260507090113 57 178 4.3 8.7 0.00 0.00 0.00 74 1015.7
20260507085559 56 163 3.5 7.8 0.00 0.00 0.00 73 1015.8
20260507085059 56 134 3.5 7.0 0.00 0.00 0.00 72 1015.7
20260507084600 55 182 3.5 7.0 0.00 0.00 0.00 72 1015.7
20260507084059 55 103 3.5 7.0 0.00 0.00 0.00 73 1015.7
20260507083602 55 149 3.5 7.8 0.00 0.00 0.00 74 1015.7
20260507083102 54 128 3.5 7.8 0.00 0.00 0.00 75 1015.7
20260507082559 54 130 1.7 8.7 0.00 0.00 0.00 75 1015.7
20260507082059 53 90 4.3 8.7 0.00 0.00 0.00 74 1015.6
20260507081602 53 150 4.3 8.7 0.00 0.00 0.00 74 1015.7
20260507081059 53 150 2.6 7.8 0.00 0.00 0.00 76 1015.7
20260507080559 53 74 2.6 8.7 0.00 0.00 0.00 75 1015.7
20260507075558 52 96 3.5 8.7 0.00 0.00 0.00 74 1015.5
20260507075058 52 90 2.6 7.0 0.00 0.00 0.00 75 1015.5
20260507074559 52 150 2.6 7.0 0.00 0.00 0.00 74 1015.5
20260507074058 52 103 3.5 7.0 0.00 0.00 0.00 74 1015.5
20260507073558 52 88 0.9 7.0 0.00 0.00 0.00 75 1015.5
20260507073110 52 102 1.7 7.0 0.00 0.00 0.00 75 1015.4
20260507072559 52 0 2.6 7.0 0.00 0.00 0.00 75 1015.5
20260507072058 52 111 2.6 7.0 0.00 0.00 0.00 76 1015.5
20260507071600 51 91 2.6 7.0 0.00 0.00 0.00 77 1015.4
20260507071059 51 82 2.6 7.0 0.00 0.00 0.00 76 1015.4
20260507070559 51 78 1.7 7.0 0.00 0.00 0.00 76 1015.4
20260507070138 51 92 0.9 7.0 0.00 0.00 0.00 77 1015.4
20260507065602 50 114 3.5 7.0 0.00 0.00 0.00 77 1015.4
20260507065058 50 101 1.7 7.8 0.00 0.00 0.00 77 1015.3
20260507064600 50 98 1.7 7.8 0.00 0.00 0.00 78 1015.4
20260507064058 50 94 2.6 7.8 0.00 0.00 0.00 78 1015.3
20260507063559 49 100 0.9 7.0 0.00 0.00 0.00 78 1015.4
20260507063102 49 0 1.7 7.0 0.00 0.00 0.00 78 1015.4
20260507062558 49 98 2.6 7.0 0.00 0.00 0.00 79 1015.4
20260507062101 49 136 1.7 3.5 0.00 0.00 0.00 80 1015.5
20260507061559 48 0 0.0 3.5 0.00 0.00 0.00 80 1015.4
20260507061059 48 121 0.9 3.5 0.00 0.00 0.00 80 1015.4
20260507060558 48 150 0.0 3.5 0.00 0.00 0.00 80 1015.4
20260507060059 48 173 0.9 6.1 0.00 0.00 0.00 80 1015.3
20260507055559 48 123 0.9 6.1 0.00 0.00 0.00 80 1015.3
20260507055059 48 154 1.7 7.0 0.00 0.00 0.00 80 1015.3
20260507054613 47 108 2.6 7.0 0.00 0.00 0.00 79 1015.1
20260507054058 47 150 0.9 5.2 0.00 0.00 0.00 81 1015.0
20260507053600 47 119 1.7 4.3 0.00 0.00 0.00 81 1015.1
20260507053058 47 107 0.9 2.6 0.00 0.00 0.00 82 1015.0
20260507052600 47 86 0.0 1.7 0.00 0.00 0.00 82 1015.1
20260507052058 47 0 0.0 1.7 0.00 0.00 0.00 83 1015.1
20260507051556 47 0 0.0 1.7 0.00 0.00 0.00 82 1015.1
20260507051058 47 0 0.0 3.5 0.00 0.00 0.00 82 1015.1
20260507050558 46 0 0.0 3.5 0.00 0.00 0.00 81 1015.2
20260507050057 46 0 0.0 1.7 0.00 0.00 0.00 82 1015.0
20260507045601 46 0 0.0 0.9 0.00 0.00 0.00 81 1015.0
20260507045058 46 132 0.0 0.9 0.00 0.00 0.00 82 1015.0
20260507044603 46 0 0.0 0.0 0.00 0.00 0.00 83 1015.0
20260507044058 46 0 0.0 0.0 0.00 0.00 0.00 83 1015.0
20260507043558 46 0 0.0 0.0 0.00 0.00 0.00 82 1015.1
20260507043059 46 0 0.0 0.0 0.00 0.00 0.00 82 1014.9
20260507042559 47 0 0.0 0.9 0.00 0.00 0.00 82 1014.9
20260507042100 47 0 0.0 0.9 0.00 0.00 0.00 82 1014.9
20260507041605 47 0 0.0 2.6 0.00 0.00 0.00 80 1014.9
20260507041058 47 126 0.0 2.6 0.00 0.00 0.00 79 1014.9
20260507040601 47 109 0.0 2.6 0.00 0.00 0.00 78 1015.0
20260507040058 47 0 0.9 1.7 0.00 0.00 0.00 78 1015.0
20260507035558 47 0 0.0 1.7 0.00 0.00 0.00 79 1014.9
20260507035058 47 0 0.0 1.7 0.00 0.00 0.00 79 1015.0
20260507034604 47 0 0.0 3.5 0.00 0.00 0.00 79 1015.0
20260507034057 47 159 0.0 3.5 0.00 0.00 0.00 78 1014.9
20260507033558 47 144 0.0 1.7 0.00 0.00 0.00 76 1014.9
20260507033057 47 0 0.0 2.6 0.00 0.00 0.00 76 1014.9
20260507032559 47 0 0.0 2.6 0.00 0.00 0.00 76 1014.9
20260507032058 47 121 0.0 2.6 0.00 0.00 0.00 76 1014.9
20260507031600 47 0 0.0 2.6 0.00 0.00 0.00 77 1014.9
20260507031103 47 136 0.0 2.6 0.00 0.00 0.00 76 1014.8
20260507030559 47 128 0.0 2.6 0.00 0.00 0.00 77 1014.8
20260507030108 47 123 0.0 2.6 0.00 0.00 0.00 77 1014.9
20260507025558 47 0 0.9 2.6 0.00 0.00 0.00 76 1014.9
20260507025058 47 153 0.9 3.5 0.00 0.00 0.00 77 1014.9
20260507024617 47 129 0.9 3.5 0.00 0.00 0.00 77 1014.9
20260507024102 47 148 0.0 3.5 0.00 0.00 0.00 76 1014.9
20260507023601 48 138 0.9 3.5 0.00 0.00 0.00 76 1014.8
20260507023058 48 122 0.9 3.5 0.00 0.00 0.00 76 1014.8
20260507022558 48 155 1.7 3.5 0.00 0.00 0.00 75 1014.8
20260507022059 48 139 0.9 3.5 0.00 0.00 0.00 75 1014.7
20260507021617 48 125 1.7 3.5 0.00 0.00 0.00 75 1014.7
20260507021101 48 124 1.7 3.5 0.00 0.00 0.00 75 1014.8
20260507020559 48 108 1.7 3.5 0.00 0.00 0.00 75 1014.7
20260507020106 48 164 0.9 3.5 0.00 0.00 0.00 74 1014.8
20260507015558 48 0 1.7 3.5 0.00 0.00 0.00 75 1014.9
20260507015100 48 127 0.9 5.2 0.00 0.00 0.00 74 1014.8
20260507014615 48 139 0.9 5.2 0.00 0.00 0.00 74 1014.8
20260507014059 48 142 0.9 2.6 0.00 0.00 0.00 75 1014.8
20260507013558 48 90 0.9 2.6 0.00 0.00 0.00 74 1014.7
20260507013100 48 0 0.0 2.6 0.00 0.00 0.00 74 1014.8
20260507012607 48 115 0.0 3.5 0.00 0.00 0.00 74 1014.7
20260507012058 48 0 0.9 4.3 0.00 0.00 0.00 74 1014.6
20260507011558 48 117 1.7 4.3 0.00 0.00 0.00 74 1014.8
20260507011100 48 142 1.7 3.5 0.00 0.00 0.00 74 1014.8
20260507010602 48 114 0.9 4.3 0.00 0.00 0.00 73 1014.7
20260507010116 48 134 0.9 4.3 0.00 0.00 0.00 72 1014.7
20260507005557 48 139 0.0 3.5 0.00 0.00 0.00 72 1014.8
20260507005057 48 105 0.9 3.5 0.00 0.00 0.00 71 1014.7
20260507004557 48 142 0.9 4.3 0.00 0.00 0.00 71 1014.8
20260507004059 49 132 0.9 4.3 0.00 0.00 0.00 71 1014.8
20260507003559 49 115 0.9 3.5 0.00 0.00 0.00 71 1014.8
20260507003100 49 135 0.0 3.5 0.00 0.00 0.00 71 1014.9
20260507002558 49 123 0.9 4.3 0.00 0.00 0.00 70 1014.9
20260507002058 49 128 0.9 5.2 0.00 0.00 0.00 70 1014.9
20260507001606 49 129 1.7 5.2 0.00 0.00 0.00 70 1015.0
20260507001101 49 126 0.9 3.5 0.00 0.00 0.00 69 1014.9
20260507000558 49 0 0.9 3.5 0.00 0.00 0.00 69 1015.0
20260507000058 49 78 0.9 3.5 0.00 0.00 0.00 69 1014.9
20260506235558 49 90 0.0 2.6 0.00 0.00 0.00 68 1015.0
20260506235058 49 107 0.9 2.6 0.00 0.00 0.00 69 1015.1
20260506234600 49 82 1.7 2.6 0.00 0.00 0.00 69 1015.1
20260506234059 49 130 0.9 2.6 0.00 0.00 0.00 69 1015.0
20260506233559 49 0 0.9 2.6 0.00 0.00 0.00 69 1015.0
20260506233059 49 117 0.0 1.7 0.00 0.00 0.00 69 1015.0
20260506232558 49 0 0.9 4.3 0.00 0.00 0.00 69 1014.9
20260506232058 49 0 0.0 4.3 0.00 0.00 0.00 70 1014.9
20260506231600 50 132 0.9 3.5 0.00 0.00 0.00 66 1015.0
20260506231059 50 136 0.9 6.1 0.00 0.00 0.00 66 1015.0
20260506230600 50 0 1.7 6.1 0.00 0.00 0.00 65 1015.0
20260506230105 50 110 1.7 5.2 0.00 0.00 0.00 65 1014.9
20260506225558 50 0 0.9 5.2 0.00 0.00 0.00 65 1015.0
20260506225059 50 113 0.9 3.5 0.00 0.00 0.00 64 1014.9
20260506224601 50 77 0.9 3.5 0.00 0.00 0.00 63 1015.0
20260506224101 50 98 0.9 5.2 0.00 0.00 0.00 64 1014.9
20260506223559 50 105 1.7 5.2 0.00 0.00 0.00 63 1015.0
20260506223059 51 90 0.9 4.3 0.00 0.00 0.00 63 1014.9
20260506222558 51 88 0.9 5.2 0.00 0.00 0.00 62 1014.9
20260506222059 51 128 0.9 6.1 0.00 0.00 0.00 61 1014.8
20260506221601 51 103 1.7 6.1 0.00 0.00 0.00 60 1014.9
20260506221101 51 73 2.6 6.1 0.00 0.00 0.00 61 1014.7
20260506220559 51 98 1.7 6.1 0.00 0.00 0.00 61 1014.7
20260506220058 51 79 2.6 5.2 0.00 0.00 0.00 62 1014.7
20260506215559 52 127 1.7 5.2 0.00 0.00 0.00 61 1014.6
20260506215058 52 113 1.7 5.2 0.00 0.00 0.00 61 1014.7
20260506214609 52 86 0.9 5.2 0.00 0.00 0.00 60 1014.7
20260506214059 52 110 1.7 6.1 0.00 0.00 0.00 60 1014.7
20260506213559 52 57 2.6 6.1 0.00 0.00 0.00 59 1014.7
20260506213102 52 85 2.6 6.1 0.00 0.00 0.00 60 1014.6
20260506212558 52 80 2.6 5.2 0.00 0.00 0.00 59 1014.6
20260506212059 53 75 2.6 7.0 0.00 0.00 0.00 60 1014.7
20260506211558 53 57 2.6 7.0 0.00 0.00 0.00 59 1014.7
20260506211059 53 65 2.6 6.1 0.00 0.00 0.00 59 1014.5
20260506210559 53 73 1.7 5.2 0.00 0.00 0.00 59 1014.4
20260506210100 53 83 2.6 5.2 0.00 0.00 0.00 59 1014.4
20260506205603 53 82 2.6 6.1 0.00 0.00 0.00 59 1014.4
20260506205059 53 90 2.6 6.1 0.00 0.00 0.00 59 1014.3
20260506204601 53 106 1.7 5.2 0.00 0.00 0.00 60 1014.3
20260506204059 52 93 1.7 5.2 0.00 0.00 0.00 61 1014.3
20260506203558 52 57 1.7 3.5 0.00 0.00 0.00 64 1014.3
20260506203108 53 89 0.9 2.6 0.00 0.00 0.00 65 1014.3
20260506202559 53 78 0.9 2.6 0.00 0.00 0.00 65 1014.2
20260506202059 53 78 0.9 2.6 0.00 0.00 0.00 64 1014.3
20260506201620 53 62 0.9 2.6 0.00 0.00 0.00 64 1014.2
20260506201059 53 0 0.9 2.6 0.00 0.00 0.00 64 1014.2
20260506200558 53 62 0.9 2.6 0.00 0.00 0.00 65 1014.2
20260506200058 53 62 0.9 1.7 0.00 0.00 0.00 64 1014.2
20260506195559 54 62 0.9 1.7 0.00 0.00 0.00 65 1014.0
20260506195058 54 62 0.9 1.7 0.00 0.00 0.00 64 1014.0
20260506194603 54 62 0.9 1.7 0.00 0.00 0.00 66 1014.0
20260506194101 55 51 0.9 2.6 0.00 0.00 0.00 65 1014.0
20260506193559 55 46 0.9 2.6 0.00 0.00 0.00 63 1014.0
20260506193107 55 49 0.9 2.6 0.00 0.00 0.00 60 1014.0
20260506192558 56 44 0.0 1.7 0.00 0.00 0.00 60 1013.9
20260506192059 56 0 0.9 1.7 0.00 0.00 0.00 60 1013.9
20260506191600 57 94 0.0 0.9 0.00 0.00 0.00 59 1014.0
20260506191059 57 0 0.0 0.9 0.00 0.00 0.00 59 1013.9
20260506190559 57 94 0.0 0.9 0.00 0.00 0.00 59 1014.0
20260506190058 58 0 0.0 1.7 0.00 0.00 0.00 57 1013.9
20260506185559 58 94 0.0 1.7 0.00 0.00 0.00 57 1014.0
20260506185059 58 0 0.0 1.7 0.00 0.00 0.00 54 1013.9
20260506184602 58 94 0.0 1.7 0.00 0.00 0.00 55 1013.9
20260506184058 58 94 0.0 1.7 0.00 0.00 0.00 55 1013.9
20260506183559 58 90 0.0 1.7 0.00 0.00 0.00 52 1013.9
20260506183100 58 106 0.0 1.7 0.00 0.00 0.00 51 1013.9
20260506182558 59 0 0.9 2.6 0.00 0.00 0.00 52 1013.9
20260506182058 59 0 0.9 3.5 0.00 0.00 0.00 50 1013.9
20260506181559 59 97 0.9 3.5 0.00 0.00 0.00 50 1013.9
20260506181059 59 96 0.9 3.5 0.00 0.00 0.00 52 1013.9
20260506180559 59 63 0.0 2.6 0.00 0.00 0.00 50 1013.9
20260506180100 59 80 0.9 2.6 0.00 0.00 0.00 49 1013.9
20260506175558 59 105 0.9 3.5 0.00 0.00 0.00 50 1013.8
20260506175058 59 84 1.7 3.5 0.00 0.00 0.00 47 1013.7
20260506174558 59 96 0.9 5.2 0.00 0.00 0.00 51 1013.7
20260506174058 59 79 0.9 5.2 0.00 0.00 0.00 50 1013.6
20260506173557 60 78 1.7 5.2 0.00 0.00 0.00 48 1013.6
20260506173123 60 83 0.9 6.1 0.00 0.00 0.00 51 1013.6
20260506172558 60 134 1.7 6.1 0.00 0.00 0.00 48 1013.6
20260506172058 60 96 1.7 6.1 0.00 0.00 0.00 47 1013.5
20260506171559 60 144 1.7 6.1 0.00 0.00 0.00 49 1013.4
20260506171058 60 81 2.6 6.1 0.00 0.00 0.00 51 1013.5
20260506170602 60 77 0.9 3.5 0.00 0.00 0.00 49 1013.4
20260506165558 60 90 1.7 6.1 0.00 0.00 0.00 49 1013.3
20260506165059 60 74 1.7 6.1 0.00 0.00 0.00 51 1013.3
20260506164558 60 0 1.7 5.2 0.00 0.00 0.00 44 1013.4
20260506164100 60 97 0.0 4.3 0.00 0.00 0.00 48 1013.3
20260506163558 60 76 1.7 6.1 0.00 0.00 0.00 47 1013.4
20260506163109 61 157 1.7 6.1 0.00 0.00 0.00 46 1013.4
20260506162558 61 107 1.7 6.1 0.00 0.00 0.00 49 1013.4
20260506162058 62 86 1.7 7.0 0.00 0.00 0.00 43 1013.4
20260506161605 63 72 1.7 7.8 0.00 0.00 0.00 46 1013.5
20260506161057 63 69 2.6 7.8 0.00 0.00 0.00 44 1013.5
20260506160558 62 109 1.7 7.8 0.00 0.00 0.00 43 1013.5
20260506155600 62 300 1.7 7.0 0.00 0.00 0.00 46 1013.5
20260506155058 62 115 0.9 6.1 0.00 0.00 0.00 49 1013.6
20260506154607 62 9 1.7 7.0 0.00 0.00 0.00 45 1013.7
20260506154059 62 325 0.0 8.7 0.00 0.00 0.00 45 1013.6
20260506153558 63 12 2.6 10.4 0.00 0.00 0.00 44 1013.7
20260506153058 62 91 3.5 10.4 0.00 0.00 0.00 47 1013.7
20260506152558 63 115 1.7 8.7 0.00 0.00 0.00 45 1013.6
20260506152058 62 348 2.6 8.7 0.00 0.00 0.00 43 1013.6
20260506151602 62 24 3.5 8.7 0.00 0.00 0.00 44 1013.6
20260506151058 62 313 1.7 6.1 0.00 0.00 0.00 44 1013.7
20260506150601 61 0 1.7 10.4 0.00 0.00 0.00 44 1013.6
20260506145600 61 83 4.3 8.7 0.00 0.00 0.00 45 1013.6
20260506145057 60 28 0.9 7.0 0.00 0.00 0.00 48 1013.7
20260506144601 60 69 3.5 7.8 0.00 0.00 0.00 45 1013.7
20260506144058 62 74 2.6 7.8 0.00 0.00 0.00 44 1013.8
20260506143559 62 97 1.7 6.1 0.00 0.00 0.00 46 1013.7
20260506143108 62 96 1.7 7.0 0.00 0.00 0.00 50 1013.7
20260506142559 61 151 1.7 8.7 0.00 0.00 0.00 55 1013.9
20260506142058 61 98 2.6 9.6 0.00 0.00 0.00 45 1013.9
20260506141559 62 61 6.1 9.6 0.00 0.00 0.00 44 1013.9
20260506141100 62 5 1.7 7.8 0.00 0.00 0.00 47 1013.9
20260506140601 61 89 1.7 6.1 0.00 0.00 0.00 49 1014.0
20260506135558 59 121 0.9 8.7 0.00 0.00 0.00 49 1014.1
20260506135058 59 67 2.6 6.1 0.00 0.00 0.00 48 1014.2
20260506134559 60 83 2.6 6.1 0.00 0.00 0.00 49 1014.2
20260506134059 60 67 1.7 9.6 0.00 0.00 0.00 49 1014.2
20260506133601 60 84 2.6 9.6 0.00 0.00 0.00 47 1014.2
20260506133104 61 132 3.5 9.6 0.00 0.00 0.00 48 1014.2
20260506132557 61 288 2.6 7.8 0.00 0.00 0.00 47 1014.1
20260506132057 61 5 1.7 7.8 0.00 0.00 0.00 52 1014.2
20260506131602 60 84 1.7 7.8 0.00 0.00 0.00 49 1014.3
20260506131058 60 347 2.6 8.7 0.00 0.00 0.00 49 1014.3
20260506130559 60 296 3.5 10.4 0.00 0.00 0.00 50 1014.2
20260506130105 60 32 1.7 10.4 0.00 0.00 0.00 47 1014.3
20260506125558 60 146 1.7 7.8 0.00 0.00 0.00 52 1014.3
20260506125058 60 82 3.5 8.7 0.00 0.00 0.00 46 1014.4
20260506124601 60 113 4.3 9.6 0.00 0.00 0.00 52 1014.3
20260506124101 60 74 4.3 9.6 0.00 0.00 0.00 50 1014.3
20260506123558 60 96 3.5 10.4 0.00 0.00 0.00 52 1014.2
20260506123058 60 83 6.1 10.4 0.00 0.00 0.00 48 1014.2
20260506122558 60 89 3.5 10.4 0.00 0.00 0.00 48 1014.1
20260506122058 60 46 4.3 9.6 0.00 0.00 0.00 51 1014.2
20260506121606 60 52 3.5 8.7 0.00 0.00 0.00 48 1014.1
20260506121058 60 13 3.5 9.6 0.00 0.00 0.00 48 1014.2
20260506120558 59 0 4.3 9.6 0.00 0.00 0.00 58 1014.2
20260506120111 59 55 5.2 10.4 0.00 0.00 0.00 51 1014.2
20260506115600 58 88 2.6 10.4 0.00 0.00 0.00 48 1014.2
20260506115059 58 66 6.1 10.4 0.00 0.00 0.00 49 1014.4
20260506114623 59 47 5.2 9.6 0.00 0.00 0.00 51 1014.3
20260506114058 59 49 2.6 10.4 0.00 0.00 0.00 48 1014.4
20260506113558 59 13 5.2 10.4 0.00 0.00 0.00 52 1014.4
20260506113057 60 65 5.2 10.4 0.00 0.00 0.00 48 1014.4
20260506112601 61 360 1.7 9.6 0.00 0.00 0.00 51 1014.6
20260506112059 60 279 3.5 9.6 0.00 0.00 0.00 54 1014.5
20260506111600 60 44 3.5 8.7 0.00 0.00 0.00 51 1014.5
20260506111058 60 349 1.7 7.8 0.00 0.00 0.00 56 1014.6
20260506110601 59 101 2.6 8.7 0.00 0.00 0.00 58 1014.5
20260506110058 59 100 5.2 8.7 0.00 0.00 0.00 57 1014.6
20260506105603 59 13 1.7 8.7 0.00 0.00 0.00 56 1014.5
20260506105059 58 322 3.5 8.7 0.00 0.00 0.00 57 1014.6
20260506104557 58 349 2.6 7.8 0.00 0.00 0.00 60 1014.6
20260506104058 57 65 2.6 7.8 0.00 0.00 0.00 61 1014.5
20260506103600 57 38 1.7 7.0 0.00 0.00 0.00 58 1014.6
20260506103057 57 285 2.6 8.7 0.00 0.00 0.00 58 1014.5
20260506102559 56 75 3.5 8.7 0.00 0.00 0.00 59 1014.6
20260506102059 56 352 3.5 7.8 0.00 0.00 0.00 57 1014.6
20260506101558 57 69 2.6 9.6 0.00 0.00 0.00 57 1014.6
20260506101057 56 352 2.6 9.6 0.00 0.00 0.00 63 1014.5
20260506100557 56 331 3.5 9.6 0.00 0.00 0.00 62 1014.6
20260506100058 56 331 2.6 7.8 0.00 0.00 0.00 64 1014.6
20260506095557 56 36 3.5 7.8 0.00 0.00 0.00 59 1014.6
20260506095057 56 119 2.6 7.8 0.00 0.00 0.00 60 1014.7